contact:dominique.lefevre@mio.osupytheas.fr, maurice.libes@osupytheas.fr, didier.mallarino@osupytheas.fr
Project:EMSO http://www.emso-fr.org/EMSO-France
Depth: 2436.0 m
Title:EMSO Ligure Ouest : Data MII capteur MICROCAT
DateTime_Computer,Latitude,Longitude,Temperature,Conductivity,Pressure,DateTime_Instrument
DateTime_Computer,Latitude,Longitude,degC,S m-1,dbar,DateTime_Instrument
2021-08-31T00:01:30Z,42.805,6.029,13.2989,4.59999,2470.413,2021-8-31T02:02:50Z
2021-08-31T00:04:34Z,42.805,6.029,13.2986,4.59999,2470.343,2021-8-31T02:05:53Z
2021-08-31T00:07:37Z,42.805,6.029,13.2984,4.59999,2470.366,2021-8-31T02:08:56Z
2021-08-31T00:10:40Z,42.805,6.029,13.2986,4.59999,2470.38,2021-8-31T02:12:00Z
2021-08-31T00:13:43Z,42.805,6.029,13.2990,4.59999,2470.366,2021-8-31T02:15:03Z
2021-08-31T00:16:46Z,42.805,6.029,13.2985,4.59999,2470.343,2021-8-31T02:18:06Z
2021-08-31T00:19:49Z,42.805,6.029,13.2983,4.59999,2470.366,2021-8-31T02:21:09Z
2021-08-31T00:22:52Z,42.805,6.029,13.2986,4.59999,2470.357,2021-8-31T02:24:12Z
2021-08-31T00:25:55Z,42.805,6.029,13.2986,4.60001,2470.357,2021-8-31T02:27:15Z
2021-08-31T00:28:59Z,42.805,6.029,13.2986,4.59999,2470.343,2021-8-31T02:30:18Z
2021-08-31T00:32:02Z,42.805,6.029,13.2988,4.59999,2470.343,2021-8-31T02:33:21Z
2021-08-31T00:35:05Z,42.805,6.029,13.2989,4.59999,2470.38,2021-8-31T02:36:25Z
2021-08-31T00:38:08Z,42.805,6.029,13.2990,4.59999,2470.357,2021-8-31T02:39:28Z
2021-08-31T00:41:11Z,42.805,6.029,13.2987,4.59998,2470.353,2021-8-31T02:42:31Z
2021-08-31T00:44:14Z,42.805,6.029,13.2990,4.60000,2470.366,2021-8-31T02:45:34Z
2021-08-31T00:47:17Z,42.805,6.029,13.2986,4.59999,2470.357,2021-8-31T02:48:37Z
2021-08-31T00:50:20Z,42.805,6.029,13.2985,4.59999,2470.343,2021-8-31T02:51:40Z
2021-08-31T00:53:24Z,42.805,6.029,13.2986,4.59999,2470.366,2021-8-31T02:54:43Z
2021-08-31T00:56:27Z,42.805,6.029,13.2986,4.59999,2470.366,2021-8-31T02:57:46Z
2021-08-31T00:59:30Z,42.805,6.029,13.2990,4.60000,2470.357,2021-8-31T03:00:50Z
2021-08-31T01:02:33Z,42.805,6.029,13.2989,4.60000,2470.366,2021-8-31T03:03:53Z
2021-08-31T01:05:36Z,42.805,6.029,13.2986,4.59999,2470.357,2021-8-31T03:06:56Z
2021-08-31T01:08:39Z,42.805,6.029,13.2987,4.59999,2470.32,2021-8-31T03:09:59Z
2021-08-31T01:11:42Z,42.805,6.029,13.2988,4.59999,2470.343,2021-8-31T03:13:02Z
2021-08-31T01:14:45Z,42.805,6.029,13.2987,4.60000,2470.413,2021-8-31T03:16:05Z
2021-08-31T01:17:48Z,42.805,6.029,13.2991,4.59999,2470.39,2021-8-31T03:19:08Z
2021-08-31T01:20:52Z,42.805,6.029,13.2985,4.59999,2470.366,2021-8-31T03:22:11Z
2021-08-31T01:23:55Z,42.805,6.029,13.2986,4.60000,2470.366,2021-8-31T03:25:14Z
2021-08-31T01:26:58Z,42.805,6.029,13.2986,4.60000,2470.343,2021-8-31T03:28:18Z
2021-08-31T01:30:01Z,42.805,6.029,13.2990,4.59999,2470.357,2021-8-31T03:31:21Z
2021-08-31T01:33:04Z,42.805,6.029,13.2985,4.60000,2470.38,2021-8-31T03:34:24Z
2021-08-31T01:36:07Z,42.805,6.029,13.2990,4.60000,2470.366,2021-8-31T03:37:27Z
2021-08-31T01:39:10Z,42.805,6.029,13.2986,4.59999,2470.366,2021-8-31T03:40:30Z
2021-08-31T01:42:13Z,42.805,6.029,13.2982,4.60000,2470.366,2021-8-31T03:43:33Z
2021-08-31T01:45:17Z,42.805,6.029,13.2988,4.59999,2470.334,2021-8-31T03:46:36Z
2021-08-31T01:48:20Z,42.805,6.029,13.2986,4.60001,2470.334,2021-8-31T03:49:39Z
2021-08-31T01:51:23Z,42.805,6.029,13.2986,4.60000,2470.343,2021-8-31T03:52:43Z
2021-08-31T01:54:26Z,42.805,6.029,13.2986,4.60001,2470.357,2021-8-31T03:55:46Z
2021-08-31T01:57:29Z,42.805,6.029,13.2986,4.59999,2470.38,2021-8-31T03:58:49Z
2021-08-31T02:00:32Z,42.805,6.029,13.2983,4.60000,2470.343,2021-8-31T04:01:52Z
2021-08-31T02:03:35Z,42.805,6.029,13.2989,4.59999,2470.334,2021-8-31T04:04:55Z
2021-08-31T02:06:38Z,42.805,6.029,13.2990,4.59999,2470.371,2021-8-31T04:07:58Z
2021-08-31T02:09:42Z,42.805,6.029,13.2986,4.60001,2470.334,2021-8-31T04:11:01Z
2021-08-31T02:12:45Z,42.805,6.029,13.2990,4.60000,2470.38,2021-8-31T04:14:04Z
2021-08-31T02:15:48Z,42.805,6.029,13.2986,4.59999,2470.343,2021-8-31T04:17:08Z
2021-08-31T02:18:51Z,42.805,6.029,13.2987,4.60000,2470.357,2021-8-31T04:20:11Z
2021-08-31T02:21:54Z,42.805,6.029,13.2985,4.59999,2470.38,2021-8-31T04:23:14Z
2021-08-31T02:24:57Z,42.805,6.029,13.2986,4.60000,2470.357,2021-8-31T04:26:17Z
2021-08-31T02:28:00Z,42.805,6.029,13.2986,4.60001,2470.343,2021-8-31T04:29:20Z
2021-08-31T02:31:03Z,42.805,6.029,13.2990,4.60001,2470.366,2021-8-31T04:32:23Z
2021-08-31T02:34:07Z,42.805,6.029,13.2988,4.59999,2470.357,2021-8-31T04:35:26Z
2021-08-31T02:37:10Z,42.805,6.029,13.2988,4.59999,2470.32,2021-8-31T04:38:29Z
2021-08-31T02:40:13Z,42.805,6.029,13.2987,4.59999,2470.343,2021-8-31T04:41:33Z
2021-08-31T02:43:16Z,42.805,6.029,13.2988,4.59999,2470.366,2021-8-31T04:44:36Z
2021-08-31T02:46:19Z,42.805,6.029,13.2989,4.59999,2470.343,2021-8-31T04:47:39Z
2021-08-31T02:49:22Z,42.805,6.029,13.2987,4.59999,2470.334,2021-8-31T04:50:42Z
2021-08-31T02:52:25Z,42.805,6.029,13.2987,4.59999,2470.357,2021-8-31T04:53:45Z
2021-08-31T02:55:28Z,42.805,6.029,13.2988,4.59999,2470.32,2021-8-31T04:56:48Z
2021-08-31T02:58:32Z,42.805,6.029,13.2985,4.59999,2470.32,2021-8-31T04:59:51Z
2021-08-31T03:01:35Z,42.805,6.029,13.2983,4.59999,2470.334,2021-8-31T05:02:54Z
2021-08-31T03:04:38Z,42.805,6.029,13.2986,4.59999,2470.357,2021-8-31T05:05:58Z
2021-08-31T03:07:41Z,42.805,6.029,13.2986,4.59999,2470.32,2021-8-31T05:09:01Z
2021-08-31T03:10:44Z,42.805,6.029,13.2990,4.60000,2470.334,2021-8-31T05:12:04Z
2021-08-31T03:13:47Z,42.805,6.029,13.2989,4.60000,2470.343,2021-8-31T05:15:07Z
2021-08-31T03:16:50Z,42.805,6.029,13.2988,4.59999,2470.297,2021-8-31T05:18:10Z
2021-08-31T03:19:53Z,42.805,6.029,13.2985,4.59999,2470.357,2021-8-31T05:21:13Z
2021-08-31T03:22:57Z,42.805,6.029,13.2986,4.59998,2470.343,2021-8-31T05:24:16Z
2021-08-31T03:26:00Z,42.805,6.029,13.2984,4.59998,2470.297,2021-8-31T05:27:19Z
2021-08-31T03:29:03Z,42.805,6.029,13.2986,4.59999,2470.32,2021-8-31T05:30:23Z
2021-08-31T03:32:06Z,42.805,6.029,13.2989,4.59998,2470.343,2021-8-31T05:33:26Z
2021-08-31T03:35:09Z,42.805,6.029,13.2988,4.59999,2470.297,2021-8-31T05:36:29Z
2021-08-31T03:38:12Z,42.805,6.029,13.2989,4.60001,2470.32,2021-8-31T05:39:32Z
2021-08-31T03:41:15Z,42.805,6.029,13.2989,4.59999,2470.32,2021-8-31T05:42:35Z
2021-08-31T03:44:18Z,42.805,6.029,13.2987,4.59999,2470.357,2021-8-31T05:45:38Z
2021-08-31T03:47:22Z,42.805,6.029,13.2987,4.59999,2470.343,2021-8-31T05:48:41Z
2021-08-31T03:50:25Z,42.805,6.029,13.2985,4.59998,2470.32,2021-8-31T05:51:44Z
2021-08-31T03:53:28Z,42.805,6.029,13.2986,4.60001,2470.343,2021-8-31T05:54:48Z
2021-08-31T03:56:31Z,42.805,6.029,13.2987,4.59999,2470.32,2021-8-31T05:57:51Z
2021-08-31T03:59:34Z,42.805,6.029,13.2990,4.59998,2470.334,2021-8-31T06:00:54Z
2021-08-31T04:02:37Z,42.805,6.029,13.2986,4.60000,2470.343,2021-8-31T06:03:57Z
2021-08-31T04:05:40Z,42.805,6.029,13.2988,4.59999,2470.32,2021-8-31T06:07:00Z
2021-08-31T04:08:43Z,42.805,6.029,13.2989,4.59999,2470.31,2021-8-31T06:10:03Z
2021-08-31T04:11:46Z,42.805,6.029,13.2990,4.59999,2470.32,2021-8-31T06:13:06Z
2021-08-31T04:14:50Z,42.805,6.029,13.2986,4.59999,2470.334,2021-8-31T06:16:09Z
2021-08-31T04:17:53Z,42.805,6.029,13.2984,4.60001,2470.357,2021-8-31T06:19:13Z
2021-08-31T04:20:56Z,42.805,6.029,13.2987,4.59999,2470.31,2021-8-31T06:22:16Z
2021-08-31T04:23:59Z,42.805,6.029,13.2987,4.59999,2470.297,2021-8-31T06:25:19Z
2021-08-31T04:27:02Z,42.805,6.029,13.2983,4.59999,2470.31,2021-8-31T06:28:22Z
2021-08-31T04:30:05Z,42.805,6.029,13.2986,4.59999,2470.32,2021-8-31T06:31:25Z
2021-08-31T04:33:08Z,42.805,6.029,13.2985,4.60000,2470.334,2021-8-31T06:34:28Z
2021-08-31T04:36:11Z,42.805,6.029,13.2989,4.59998,2470.357,2021-8-31T06:37:31Z
2021-08-31T04:39:15Z,42.805,6.029,13.2989,4.59999,2470.334,2021-8-31T06:40:34Z
2021-08-31T04:42:18Z,42.805,6.029,13.2984,4.59999,2470.32,2021-8-31T06:43:38Z
2021-08-31T04:45:21Z,42.805,6.029,13.2986,4.59999,2470.334,2021-8-31T06:46:41Z
2021-08-31T04:48:24Z,42.805,6.029,13.2986,4.59999,2470.31,2021-8-31T06:49:44Z
2021-08-31T04:51:27Z,42.805,6.029,13.2990,4.59999,2470.31,2021-8-31T06:52:47Z
2021-08-31T04:54:30Z,42.805,6.029,13.2986,4.59999,2470.32,2021-8-31T06:55:50Z
2021-08-31T04:57:33Z,42.805,6.029,13.2984,4.59999,2470.273,2021-8-31T06:58:53Z
2021-08-31T05:00:36Z,42.805,6.029,13.2985,4.59999,2470.31,2021-8-31T07:01:56Z
2021-08-31T05:03:40Z,42.805,6.029,13.2989,4.59999,2470.273,2021-8-31T07:04:59Z
2021-08-31T05:06:43Z,42.805,6.029,13.2990,4.59999,2470.297,2021-8-31T07:08:03Z
2021-08-31T05:09:46Z,42.805,6.029,13.2985,4.59999,2470.32,2021-8-31T07:11:06Z
2021-08-31T05:12:49Z,42.805,6.029,13.2986,4.59999,2470.297,2021-8-31T07:14:09Z
2021-08-31T05:15:52Z,42.805,6.029,13.2986,4.59999,2470.297,2021-8-31T07:17:12Z
2021-08-31T05:18:55Z,42.805,6.029,13.2990,4.60000,2470.273,2021-8-31T07:20:15Z
2021-08-31T05:21:58Z,42.805,6.029,13.2988,4.59999,2470.31,2021-8-31T07:23:18Z
2021-08-31T05:25:01Z,42.805,6.029,13.2986,4.59998,2470.32,2021-8-31T07:26:21Z
2021-08-31T05:28:05Z,42.805,6.029,13.2986,4.60001,2470.287,2021-8-31T07:29:24Z
2021-08-31T05:31:08Z,42.805,6.029,13.2987,4.59998,2470.297,2021-8-31T07:32:27Z
2021-08-31T05:34:11Z,42.805,6.029,13.2986,4.59999,2470.273,2021-8-31T07:35:31Z
2021-08-31T05:37:14Z,42.805,6.029,13.2986,4.59999,2470.297,2021-8-31T07:38:34Z
2021-08-31T05:40:17Z,42.805,6.029,13.2986,4.59998,2470.273,2021-8-31T07:41:37Z
2021-08-31T05:43:20Z,42.805,6.029,13.2984,4.59999,2470.297,2021-8-31T07:44:40Z
2021-08-31T05:46:23Z,42.805,6.029,13.2990,4.59998,2470.287,2021-8-31T07:47:43Z
2021-08-31T05:49:26Z,42.805,6.029,13.2988,4.59998,2470.297,2021-8-31T07:50:46Z
2021-08-31T05:52:30Z,42.805,6.029,13.2986,4.59999,2470.297,2021-8-31T07:53:49Z
2021-08-31T05:55:33Z,42.805,6.029,13.2987,4.59999,2470.25,2021-8-31T07:56:52Z
2021-08-31T05:58:36Z,42.805,6.029,13.2988,4.59998,2470.287,2021-8-31T07:59:56Z
2021-08-31T06:01:39Z,42.805,6.029,13.2988,4.59999,2470.273,2021-8-31T08:02:59Z
2021-08-31T06:04:42Z,42.805,6.029,13.2986,4.59999,2470.31,2021-8-31T08:06:02Z
2021-08-31T06:07:45Z,42.805,6.029,13.2986,4.59999,2470.273,2021-8-31T08:09:05Z
2021-08-31T06:10:48Z,42.805,6.029,13.2990,4.59999,2470.273,2021-8-31T08:12:08Z
2021-08-31T06:13:51Z,42.805,6.029,13.2985,4.60000,2470.287,2021-8-31T08:15:11Z
2021-08-31T06:16:55Z,42.805,6.029,13.2986,4.59998,2470.273,2021-8-31T08:18:14Z
2021-08-31T06:19:58Z,42.805,6.029,13.2991,4.59998,2470.25,2021-8-31T08:21:17Z
2021-08-31T06:23:01Z,42.805,6.029,13.2986,4.59999,2470.287,2021-8-31T08:24:21Z
2021-08-31T06:26:04Z,42.805,6.029,13.2987,4.59998,2470.287,2021-8-31T08:27:24Z
2021-08-31T06:29:07Z,42.805,6.029,13.2987,4.59999,2470.273,2021-8-31T08:30:27Z
2021-08-31T06:32:10Z,42.805,6.029,13.2984,4.59998,2470.273,2021-8-31T08:33:30Z
2021-08-31T06:35:13Z,42.805,6.029,13.2988,4.59999,2470.273,2021-8-31T08:36:33Z
2021-08-31T06:38:16Z,42.805,6.029,13.2988,4.59999,2470.25,2021-8-31T08:39:36Z
2021-08-31T06:41:20Z,42.805,6.029,13.2985,4.59998,2470.273,2021-8-31T08:42:39Z
2021-08-31T06:44:23Z,42.805,6.029,13.2986,4.59999,2470.297,2021-8-31T08:45:42Z
2021-08-31T06:47:26Z,42.805,6.029,13.2988,4.59999,2470.25,2021-8-31T08:48:46Z
2021-08-31T06:50:29Z,42.805,6.029,13.2987,4.59999,2470.287,2021-8-31T08:51:49Z
2021-08-31T06:53:32Z,42.805,6.029,13.2986,4.59999,2470.273,2021-8-31T08:54:52Z
2021-08-31T06:56:35Z,42.805,6.029,13.2989,4.59999,2470.264,2021-8-31T08:57:55Z
2021-08-31T06:59:38Z,42.805,6.029,13.2991,4.59999,2470.297,2021-8-31T09:00:58Z
2021-08-31T07:02:41Z,42.805,6.029,13.2986,4.59999,2470.264,2021-8-31T09:04:01Z
2021-08-31T07:05:45Z,42.805,6.029,13.2987,4.59998,2470.273,2021-8-31T09:07:04Z
2021-08-31T07:08:48Z,42.805,6.029,13.2990,4.59999,2470.287,2021-8-31T09:10:07Z
2021-08-31T07:11:51Z,42.805,6.029,13.2988,4.59998,2470.287,2021-8-31T09:13:11Z
2021-08-31T07:14:54Z,42.805,6.029,13.2989,4.59999,2470.297,2021-8-31T09:16:14Z
2021-08-31T07:17:57Z,42.805,6.029,13.2986,4.59999,2470.301,2021-8-31T09:19:17Z
2021-08-31T07:21:00Z,42.805,6.029,13.2986,4.59999,2470.25,2021-8-31T09:22:20Z
2021-08-31T07:24:03Z,42.805,6.029,13.2985,4.59999,2470.227,2021-8-31T09:25:23Z
2021-08-31T07:27:06Z,42.805,6.029,13.2987,4.59999,2470.25,2021-8-31T09:28:26Z
2021-08-31T07:30:10Z,42.805,6.029,13.2985,4.59999,2470.273,2021-8-31T09:31:29Z
2021-08-31T07:33:13Z,42.805,6.029,13.2985,4.59999,2470.273,2021-8-31T09:34:32Z
2021-08-31T07:36:16Z,42.805,6.029,13.2984,4.59999,2470.273,2021-8-31T09:37:36Z
2021-08-31T07:39:19Z,42.805,6.029,13.2985,4.59999,2470.273,2021-8-31T09:40:39Z
2021-08-31T07:42:22Z,42.805,6.029,13.2991,4.59999,2470.25,2021-8-31T09:43:42Z
2021-08-31T07:45:25Z,42.805,6.029,13.2987,4.59999,2470.25,2021-8-31T09:46:45Z
2021-08-31T07:48:28Z,42.805,6.029,13.2988,4.59999,2470.273,2021-8-31T09:49:48Z
2021-08-31T07:51:31Z,42.805,6.029,13.2987,4.59999,2470.273,2021-8-31T09:52:51Z
2021-08-31T07:54:35Z,42.805,6.029,13.2985,4.59999,2470.287,2021-8-31T09:55:54Z
2021-08-31T07:57:38Z,42.805,6.029,13.2990,4.59999,2470.26,2021-8-31T09:58:57Z
2021-08-31T08:00:41Z,42.805,6.029,13.2987,4.59999,2470.25,2021-8-31T10:02:01Z
2021-08-31T08:03:44Z,42.805,6.029,13.2986,4.59999,2470.31,2021-8-31T10:05:04Z
2021-08-31T08:06:47Z,42.805,6.029,13.2989,4.59999,2470.273,2021-8-31T10:08:07Z
2021-08-31T08:09:50Z,42.805,6.029,13.2988,4.59999,2470.297,2021-8-31T10:11:10Z
2021-08-31T08:12:53Z,42.805,6.029,13.2989,4.59999,2470.273,2021-8-31T10:14:13Z
2021-08-31T08:15:56Z,42.805,6.029,13.2987,4.59999,2470.287,2021-8-31T10:17:16Z
2021-08-31T08:19:00Z,42.805,6.029,13.2989,4.59999,2470.264,2021-8-31T10:20:19Z
2021-08-31T08:22:03Z,42.805,6.029,13.2988,4.59999,2470.287,2021-8-31T10:23:22Z
2021-08-31T08:25:06Z,42.805,6.029,13.2986,4.59998,2470.264,2021-8-31T10:26:26Z
2021-08-31T08:28:09Z,42.805,6.029,13.2986,4.59999,2470.273,2021-8-31T10:29:29Z
2021-08-31T08:31:12Z,42.805,6.029,13.2987,4.59998,2470.264,2021-8-31T10:32:32Z
2021-08-31T08:34:15Z,42.805,6.029,13.2986,4.59998,2470.273,2021-8-31T10:35:35Z
2021-08-31T08:37:18Z,42.805,6.029,13.2990,4.59998,2470.273,2021-8-31T10:38:38Z
2021-08-31T08:40:21Z,42.805,6.029,13.2990,4.59999,2470.287,2021-8-31T10:41:41Z
2021-08-31T08:43:25Z,42.805,6.029,13.2988,4.59999,2470.287,2021-8-31T10:44:44Z
2021-08-31T08:46:28Z,42.805,6.029,13.2983,4.59998,2470.273,2021-8-31T10:47:48Z
2021-08-31T08:49:31Z,42.805,6.029,13.2990,4.59999,2470.25,2021-8-31T10:50:51Z
2021-08-31T08:52:34Z,42.805,6.029,13.2989,4.59999,2470.25,2021-8-31T10:53:54Z
2021-08-31T08:55:37Z,42.805,6.029,13.2987,4.59998,2470.25,2021-8-31T10:56:57Z
2021-08-31T08:58:40Z,42.805,6.029,13.2986,4.59998,2470.297,2021-8-31T11:00:00Z
2021-08-31T09:01:43Z,42.805,6.029,13.2987,4.59998,2470.273,2021-8-31T11:03:03Z
2021-08-31T09:04:46Z,42.805,6.029,13.2989,4.59999,2470.297,2021-8-31T11:06:06Z
2021-08-31T09:07:50Z,42.805,6.029,13.2987,4.59999,2470.273,2021-8-31T11:09:09Z
2021-08-31T09:10:53Z,42.805,6.029,13.2984,4.59998,2470.297,2021-8-31T11:12:12Z
2021-08-31T09:13:56Z,42.805,6.029,13.2984,4.59998,2470.273,2021-8-31T11:15:16Z
2021-08-31T09:16:59Z,42.805,6.029,13.2986,4.59998,2470.273,2021-8-31T11:18:19Z
2021-08-31T09:20:02Z,42.805,6.029,13.2986,4.59999,2470.287,2021-8-31T11:21:22Z
2021-08-31T09:23:05Z,42.805,6.029,13.2985,4.59998,2470.273,2021-8-31T11:24:25Z
2021-08-31T09:26:08Z,42.805,6.029,13.2983,4.59997,2470.25,2021-8-31T11:27:28Z
2021-08-31T09:29:11Z,42.805,6.029,13.2982,4.59999,2470.297,2021-8-31T11:30:31Z
2021-08-31T09:32:15Z,42.805,6.029,13.2986,4.59998,2470.287,2021-8-31T11:33:34Z
2021-08-31T09:35:18Z,42.805,6.029,13.2983,4.59997,2470.273,2021-8-31T11:36:38Z
2021-08-31T09:38:21Z,42.805,6.029,13.2987,4.59998,2470.273,2021-8-31T11:39:41Z
2021-08-31T09:41:24Z,42.805,6.029,13.2986,4.59999,2470.25,2021-8-31T11:42:44Z
2021-08-31T09:44:27Z,42.805,6.029,13.2988,4.59999,2470.264,2021-8-31T11:45:47Z
2021-08-31T09:47:30Z,42.805,6.029,13.2986,4.59998,2470.273,2021-8-31T11:48:50Z
2021-08-31T09:50:33Z,42.805,6.029,13.2987,4.59998,2470.297,2021-8-31T11:51:53Z
2021-08-31T09:53:37Z,42.805,6.029,13.2986,4.59999,2470.273,2021-8-31T11:54:56Z
2021-08-31T09:56:40Z,42.805,6.029,13.2989,4.59998,2470.297,2021-8-31T11:57:59Z
2021-08-31T09:59:43Z,42.805,6.029,13.2990,4.59997,2470.297,2021-8-31T12:01:03Z
2021-08-31T10:02:46Z,42.805,6.029,13.2991,4.59999,2470.287,2021-8-31T12:04:06Z
2021-08-31T10:05:49Z,42.805,6.029,13.2986,4.59998,2470.273,2021-8-31T12:07:09Z
2021-08-31T10:08:52Z,42.805,6.029,13.2991,4.59998,2470.31,2021-8-31T12:10:12Z
2021-08-31T10:11:55Z,42.805,6.029,13.2989,4.59998,2470.287,2021-8-31T12:13:15Z
2021-08-31T10:14:58Z,42.805,6.029,13.2987,4.59999,2470.287,2021-8-31T12:16:18Z
2021-08-31T10:18:02Z,42.805,6.029,13.2986,4.59998,2470.31,2021-8-31T12:19:21Z
2021-08-31T10:21:05Z,42.805,6.029,13.2986,4.59998,2470.297,2021-8-31T12:22:24Z
2021-08-31T10:24:08Z,42.805,6.029,13.2987,4.59997,2470.297,2021-8-31T12:25:28Z
2021-08-31T10:27:11Z,42.805,6.029,13.2984,4.59998,2470.297,2021-8-31T12:28:31Z
2021-08-31T10:30:14Z,42.805,6.029,13.2983,4.59998,2470.31,2021-8-31T12:31:34Z
2021-08-31T10:33:17Z,42.805,6.029,13.2985,4.59999,2470.273,2021-8-31T12:34:37Z
2021-08-31T10:36:20Z,42.805,6.029,13.2989,4.59998,2470.297,2021-8-31T12:37:40Z
2021-08-31T10:39:23Z,42.805,6.029,13.2983,4.59998,2470.273,2021-8-31T12:40:43Z
2021-08-31T10:42:27Z,42.805,6.029,13.2986,4.59999,2470.32,2021-8-31T12:43:46Z
2021-08-31T10:45:30Z,42.805,6.029,13.2989,4.59999,2470.297,2021-8-31T12:46:49Z
2021-08-31T10:48:33Z,42.805,6.029,13.2990,4.59999,2470.32,2021-8-31T12:49:53Z
2021-08-31T10:51:36Z,42.805,6.029,13.2988,4.59998,2470.273,2021-8-31T12:52:56Z
2021-08-31T10:54:39Z,42.805,6.029,13.2986,4.59999,2470.297,2021-8-31T12:55:59Z
2021-08-31T10:57:42Z,42.805,6.029,13.2985,4.59999,2470.287,2021-8-31T12:59:02Z
2021-08-31T11:00:45Z,42.805,6.029,13.2986,4.59999,2470.32,2021-8-31T13:02:05Z
2021-08-31T11:03:48Z,42.805,6.029,13.2987,4.59999,2470.287,2021-8-31T13:05:08Z
2021-08-31T11:06:52Z,42.805,6.029,13.2986,4.59999,2470.297,2021-8-31T13:08:11Z
2021-08-31T11:09:55Z,42.805,6.029,13.2982,4.59999,2470.31,2021-8-31T13:11:15Z
2021-08-31T11:12:58Z,42.805,6.029,13.2984,4.59999,2470.297,2021-8-31T13:14:18Z
2021-08-31T11:16:01Z,42.805,6.029,13.2989,4.59999,2470.31,2021-8-31T13:17:21Z
2021-08-31T11:19:04Z,42.805,6.029,13.2986,4.59999,2470.273,2021-8-31T13:20:24Z
2021-08-31T11:22:07Z,42.805,6.029,13.2985,4.59999,2470.297,2021-8-31T13:23:27Z
2021-08-31T11:25:10Z,42.805,6.029,13.2986,4.59999,2470.31,2021-8-31T13:26:30Z
2021-08-31T11:28:13Z,42.805,6.029,13.2987,4.59998,2470.343,2021-8-31T13:29:33Z
2021-08-31T11:31:17Z,42.805,6.029,13.2989,4.59998,2470.334,2021-8-31T13:32:36Z
2021-08-31T11:34:20Z,42.805,6.029,13.2985,4.59999,2470.31,2021-8-31T13:35:40Z
2021-08-31T11:37:23Z,42.805,6.029,13.2988,4.59999,2470.32,2021-8-31T13:38:43Z
2021-08-31T11:40:26Z,42.805,6.029,13.2989,4.59998,2470.334,2021-8-31T13:41:46Z
2021-08-31T11:43:29Z,42.805,6.029,13.2987,4.59998,2470.334,2021-8-31T13:44:49Z
2021-08-31T11:46:32Z,42.805,6.029,13.2983,4.59999,2470.32,2021-8-31T13:47:52Z
2021-08-31T11:49:35Z,42.805,6.029,13.2985,4.59999,2470.32,2021-8-31T13:50:55Z
2021-08-31T11:52:39Z,42.805,6.029,13.2983,4.59998,2470.32,2021-8-31T13:53:58Z
2021-08-31T11:55:42Z,42.805,6.029,13.2986,4.59999,2470.32,2021-8-31T13:57:01Z
2021-08-31T11:58:45Z,42.805,6.029,13.2984,4.59999,2470.357,2021-8-31T14:00:05Z
2021-08-31T12:01:48Z,42.805,6.029,13.2982,4.59997,2470.32,2021-8-31T14:03:08Z
2021-08-31T12:04:51Z,42.805,6.029,13.2990,4.59998,2470.32,2021-8-31T14:06:11Z
2021-08-31T12:07:54Z,42.805,6.029,13.2982,4.59999,2470.32,2021-8-31T14:09:14Z
2021-08-31T12:10:57Z,42.805,6.029,13.2980,4.59999,2470.357,2021-8-31T14:12:17Z
2021-08-31T12:14:00Z,42.805,6.029,13.2984,4.59998,2470.366,2021-8-31T14:15:20Z
2021-08-31T12:17:04Z,42.805,6.029,13.2990,4.59998,2470.357,2021-8-31T14:18:23Z
2021-08-31T12:20:07Z,42.805,6.029,13.2986,4.59997,2470.343,2021-8-31T14:21:26Z
2021-08-31T12:23:10Z,42.805,6.029,13.2985,4.59998,2470.366,2021-8-31T14:24:30Z
2021-08-31T12:26:13Z,42.805,6.029,13.2983,4.59998,2470.32,2021-8-31T14:27:33Z
2021-08-31T12:29:16Z,42.805,6.029,13.2984,4.59996,2470.334,2021-8-31T14:30:36Z
2021-08-31T12:32:19Z,42.805,6.029,13.2988,4.59997,2470.357,2021-8-31T14:33:39Z
2021-08-31T12:35:22Z,42.805,6.029,13.2986,4.59997,2470.32,2021-8-31T14:36:42Z
2021-08-31T12:38:25Z,42.805,6.029,13.2982,4.59998,2470.38,2021-8-31T14:39:45Z
2021-08-31T12:41:29Z,42.805,6.029,13.2983,4.59998,2470.32,2021-8-31T14:42:48Z
2021-08-31T12:44:32Z,42.805,6.029,13.2983,4.59999,2470.32,2021-8-31T14:45:51Z
2021-08-31T12:47:35Z,42.805,6.029,13.2984,4.59997,2470.343,2021-8-31T14:48:55Z
2021-08-31T12:50:38Z,42.805,6.029,13.2986,4.59998,2470.334,2021-8-31T14:51:58Z
2021-08-31T12:53:41Z,42.805,6.029,13.2982,4.59997,2470.343,2021-8-31T14:55:01Z
2021-08-31T12:56:44Z,42.805,6.029,13.2985,4.59999,2470.357,2021-8-31T14:58:04Z
2021-08-31T12:59:47Z,42.805,6.029,13.2986,4.59997,2470.343,2021-8-31T15:01:07Z
2021-08-31T13:02:50Z,42.805,6.029,13.2987,4.59999,2470.366,2021-8-31T15:04:10Z
2021-08-31T13:05:54Z,42.805,6.029,13.2985,4.59998,2470.334,2021-8-31T15:07:13Z
2021-08-31T13:08:57Z,42.805,6.029,13.2988,4.59998,2470.366,2021-8-31T15:10:16Z
2021-08-31T13:12:00Z,42.805,6.029,13.2988,4.59998,2470.32,2021-8-31T15:13:20Z
2021-08-31T13:15:03Z,42.805,6.029,13.2987,4.59998,2470.366,2021-8-31T15:16:23Z
2021-08-31T13:18:06Z,42.805,6.029,13.2988,4.59999,2470.343,2021-8-31T15:19:26Z
2021-08-31T13:21:09Z,42.805,6.029,13.2990,4.59998,2470.366,2021-8-31T15:22:29Z
2021-08-31T13:24:12Z,42.805,6.029,13.2984,4.59999,2470.366,2021-8-31T15:25:32Z
2021-08-31T13:27:15Z,42.805,6.029,13.2985,4.59998,2470.366,2021-8-31T15:28:35Z
2021-08-31T13:30:19Z,42.805,6.029,13.2984,4.59998,2470.343,2021-8-31T15:31:38Z
2021-08-31T13:33:22Z,42.805,6.029,13.2986,4.59998,2470.343,2021-8-31T15:34:42Z
2021-08-31T13:36:25Z,42.805,6.029,13.2990,4.59998,2470.38,2021-8-31T15:37:45Z
2021-08-31T13:39:28Z,42.805,6.029,13.2984,4.59996,2470.343,2021-8-31T15:40:48Z
2021-08-31T13:42:31Z,42.805,6.029,13.2987,4.59998,2470.357,2021-8-31T15:43:51Z
2021-08-31T13:45:34Z,42.805,6.029,13.2991,4.59998,2470.366,2021-8-31T15:46:54Z
2021-08-31T13:48:37Z,42.805,6.029,13.2987,4.59997,2470.38,2021-8-31T15:49:57Z
2021-08-31T13:51:40Z,42.805,6.029,13.2983,4.59998,2470.39,2021-8-31T15:53:00Z
2021-08-31T13:54:44Z,42.805,6.029,13.2986,4.59998,2470.366,2021-8-31T15:56:03Z
2021-08-31T13:57:47Z,42.805,6.029,13.2984,4.59998,2470.343,2021-8-31T15:59:07Z
2021-08-31T14:00:50Z,42.805,6.029,13.2983,4.59999,2470.32,2021-8-31T16:02:10Z
2021-08-31T14:03:53Z,42.805,6.029,13.2983,4.59998,2470.343,2021-8-31T16:05:13Z
2021-08-31T14:06:56Z,42.805,6.029,13.2983,4.59999,2470.366,2021-8-31T16:08:16Z
2021-08-31T14:09:59Z,42.805,6.029,13.2983,4.59997,2470.343,2021-8-31T16:11:19Z
2021-08-31T14:13:02Z,42.805,6.029,13.2985,4.59997,2470.343,2021-8-31T16:14:22Z
2021-08-31T14:16:05Z,42.805,6.029,13.2981,4.59998,2470.343,2021-8-31T16:17:25Z
2021-08-31T14:19:09Z,42.805,6.029,13.2986,4.59997,2470.33,2021-8-31T16:20:28Z
2021-08-31T14:22:12Z,42.805,6.029,13.2988,4.59998,2470.343,2021-8-31T16:23:32Z
2021-08-31T14:25:15Z,42.805,6.029,13.2985,4.59998,2470.366,2021-8-31T16:26:35Z
2021-08-31T14:28:18Z,42.805,6.029,13.2982,4.59998,2470.357,2021-8-31T16:29:38Z
2021-08-31T14:31:21Z,42.805,6.029,13.2986,4.59999,2470.366,2021-8-31T16:32:41Z
2021-08-31T14:34:24Z,42.805,6.029,13.2986,4.59999,2470.32,2021-8-31T16:35:44Z
2021-08-31T14:37:27Z,42.805,6.029,13.2986,4.59998,2470.343,2021-8-31T16:38:47Z
2021-08-31T14:40:31Z,42.805,6.029,13.2985,4.59998,2470.366,2021-8-31T16:41:50Z
2021-08-31T14:43:34Z,42.805,6.029,13.2987,4.59998,2470.334,2021-8-31T16:44:53Z
2021-08-31T14:46:37Z,42.805,6.029,13.2988,4.59999,2470.343,2021-8-31T16:47:57Z
2021-08-31T14:49:40Z,42.805,6.029,13.2984,4.60001,2470.343,2021-8-31T16:51:00Z
2021-08-31T14:52:43Z,42.805,6.029,13.2981,4.59997,2470.343,2021-8-31T16:54:03Z
2021-08-31T14:55:46Z,42.805,6.029,13.2985,4.59998,2470.366,2021-8-31T16:57:06Z
2021-08-31T14:58:49Z,42.805,6.029,13.2986,4.59998,2470.343,2021-8-31T17:00:09Z
2021-08-31T15:01:52Z,42.805,6.029,13.2985,4.59997,2470.343,2021-8-31T17:03:12Z
2021-08-31T15:04:56Z,42.805,6.029,13.2987,4.59997,2470.357,2021-8-31T17:06:15Z
2021-08-31T15:07:59Z,42.805,6.029,13.2984,4.59998,2470.357,2021-8-31T17:09:18Z
2021-08-31T15:11:02Z,42.805,6.029,13.2983,4.59999,2470.343,2021-8-31T17:12:22Z